Location: *
(41.7492°S, 135.4150°W)
Time: 03:25:31
(UTC+00:00)

AO-27 - Pass Details

Date: 04 July 2022
Orbit: 786 x 796 km, 98.9° (Epoch: 14 August)

Event Time Altitude Azimuth Distance (km) Brightness Sun altitude
Rises 14:58:45 0° 49° (NE) 3,300 12.1 -16.3°
Reaches altitude 10° 15:01:24 10° 60° (ENE) 2,378 11.4 -15.8°
Maximum altitude 15:05:42 26° 115° (ESE) 1,534 9.7 -15.1°
Drops below altitude 10° 15:10:01 10° 170° (S) 2,397 10.1 -14.3°
Sets 15:12:41 0° 182° (S) 3,332 10.7 -13.8°
